period_start,C,m1,H,J0,J1,J2,J3,J4,J5,JA,JB,JC,JD,JJ,JK,JN,#
2018-09-09 00:00:26,-0.01,0.42,0.00,19.69,23.32,26.36,14.16,47.65,1018.09,2043.22,3110.01,2804.00,3230.00,600.00,603.43,20.97,0000 0000 0000 0000 000000
2018-09-09 00:05:27,0.00,0.42,0.00,19.69,23.32,26.36,14.14,47.69,1018.10,2043.24,3110.00,2804.00,3229.98,600.11,603.77,21.02,0000 0000 0000 0000 000000
2018-09-09 00:10:29,0.01,0.42,0.00,19.69,23.32,26.34,14.19,47.61,1018.08,2043.25,3109.99,2804.00,3229.96,600.18,603.78,21.07,0000 0000 0000 0000 000000
2018-09-09 00:15:30,0.02,0.42,0.00,19.69,23.32,26.32,14.12,47.55,1018.07,2043.43,3109.96,2804.00,3229.95,600.12,603.69,21.12,0000 0000 0000 0000 000000
2018-09-09 00:20:31,0.03,0.43,0.00,19.72,23.32,26.32,14.17,47.48,1018.00,2043.48,3109.24,2803.98,3229.32,599.98,603.53,21.17,0000 0000 0000 0000 000000
2018-09-09 00:25:32,0.01,0.43,0.00,19.72,23.32,26.36,14.04,47.52,1017.96,2043.49,3109.03,2803.97,3229.03,599.55,603.10,21.22,0000 0000 0000 0000 000000
2018-09-09 00:30:33,0.00,0.43,0.00,19.72,23.32,26.34,14.12,47.52,1017.96,2043.54,3109.01,2803.95,3229.01,600.00,603.45,21.27,0000 0000 0000 0000 000000
2018-09-09 00:35:35,-0.00,0.43,0.00,19.72,23.32,26.34,14.07,47.48,1017.79,2043.48,3108.91,2803.77,3228.98,600.03,603.42,21.32,0000 0000 0000 0000 000000
2018-09-09 00:40:36,0.03,0.43,0.00,19.72,23.32,26.31,14.07,47.53,1017.77,2043.34,3108.07,2803.04,3228.49,599.92,603.30,21.37,0000 0000 0000 0000 000000
2018-09-09 00:45:38,0.01,0.43,0.00,19.73,23.32,26.33,14.19,47.54,1017.71,2043.31,3107.99,2803.00,3228.04,600.15,603.37,21.42,0000 0000 0000 0000 000000
2018-09-09 00:50:39,-0.00,0.43,0.00,19.74,23.34,26.33,14.05,47.55,1017.80,2043.24,3107.94,2803.00,3228.01,599.93,603.28,21.47,0000 0000 0000 0000 000000
2018-09-09 00:55:40,0.00,0.43,0.00,19.74,23.34,26.31,14.09,47.54,1017.68,2043.25,3107.86,2802.99,3228.00,599.95,603.24,21.52,0000 0000 0000 0000 000000
2018-09-09 01:00:41,-0.01,0.43,0.00,19.74,23.34,26.32,14.15,47.58,1017.66,2043.13,3107.52,2802.98,3228.00,599.92,603.14,21.57,0000 0000 0000 0000 000000
2018-09-09 01:05:43,0.02,0.43,0.00,19.75,23.34,26.35,14.14,47.55,1017.61,2043.17,3107.17,2802.97,3228.00,600.19,603.32,21.62,0000 0000 0000 0000 000000
2018-09-09 01:10:44,-0.01,0.43,0.00,19.75,23.34,26.33,14.18,47.51,1017.60,2043.24,3107.07,2802.97,3227.98,600.37,603.48,21.67,0000 0000 0000 0000 000000
2018-09-09 01:15:46,-0.01,0.43,0.00,19.76,23.35,26.36,14.22,47.57,1017.60,2043.08,3107.01,2802.92,3227.92,600.20,603.44,21.72,0000 0000 0000 0000 000000
2018-09-09 01:20:47,0.01,0.43,0.00,19.77,23.35,26.37,14.17,47.58,1017.59,2043.10,3107.01,2802.89,3227.86,600.00,603.26,21.77,0000 0000 0000 0000 000000
2018-09-09 01:25:48,0.02,0.43,0.00,19.78,23.37,26.35,14.10,47.54,1017.60,2043.23,3107.00,2802.74,3227.61,599.92,603.13,21.82,0000 0000 0000 0000 000000
2018-09-09 01:30:49,0.02,0.43,0.00,19.79,23.37,26.36,14.20,47.58,1017.60,2043.29,3106.99,2802.33,3227.08,600.25,603.34,21.87,0000 0000 0000 0000 000000
2018-09-09 01:35:51,-0.01,0.43,0.00,19.79,23.37,26.33,14.15,47.54,1017.59,2043.11,3106.98,2802.23,3227.02,600.27,603.37,21.92,0000 0000 0000 0000 000000
2018-09-09 01:40:52,0.00,0.43,0.00,19.79,23.37,26.34,14.12,47.62,1017.59,2043.03,3106.98,2802.08,3227.00,600.16,603.26,21.97,0000 0000 0000 0000 000000
2018-09-09 01:45:53,-0.00,0.43,0.00,19.80,23.37,26.34,14.07,47.57,1017.59,2043.03,3106.92,2802.04,3227.00,599.78,602.87,22.02,0000 0000 0000 0000 000000
2018-09-09 01:50:54,0.01,0.43,0.00,19.82,23.37,26.35,14.13,47.59,1017.59,2043.03,3106.47,2802.03,3227.00,599.94,602.96,22.07,0000 0000 0000 0000 000000
2018-09-09 01:55:55,-0.00,0.43,0.00,19.82,23.37,26.36,14.14,47.58,1017.59,2043.02,3106.13,2802.01,3226.97,599.97,603.05,22.12,0000 0000 0000 0000 000000
2018-09-09 02:00:56,0.00,0.43,0.00,19.82,23.39,26.38,14.15,47.54,1017.58,2043.01,3106.01,2802.00,3226.88,600.08,603.14,22.17,0000 0000 0000 0000 000000
2018-09-09 02:05:57,0.00,0.43,0.00,19.82,23.39,26.37,14.11,47.58,1017.49,2043.03,3106.00,2802.00,3226.62,600.16,603.09,22.22,0000 0000 0000 0000 000000
2018-09-09 02:10:59,0.00,0.43,0.00,19.83,23.39,26.39,14.10,47.52,1017.29,2043.00,3105.99,2802.00,3226.14,599.87,602.78,22.27,0000 0000 0000 0000 000000
2018-09-09 02:16:00,0.00,0.43,0.00,19.84,23.39,26.40,14.12,47.52,1017.19,2043.00,3105.96,2801.99,3226.01,600.30,603.06,22.32,0000 0000 0000 0000 000000
2018-09-09 02:21:02,0.00,0.43,0.00,19.84,23.40,26.40,14.11,47.58,1017.16,2043.00,3105.69,2801.98,3226.00,600.01,602.76,22.37,0000 0000 0000 0000 000000
2018-09-09 02:26:03,0.01,0.43,0.00,19.86,23.41,26.40,14.18,47.49,1017.13,2043.00,3105.10,2801.89,3225.98,599.88,602.69,22.42,0000 0000 0000 0000 000000
2018-09-09 02:31:04,0.00,0.43,0.00,19.87,23.42,26.39,14.11,47.47,1017.13,2043.00,3105.00,2801.76,3225.92,600.08,602.85,22.47,0000 0000 0000 0000 000000
2018-09-09 02:36:06,0.00,0.43,0.00,19.87,23.42,26.39,14.06,47.52,1017.12,2043.00,3104.93,2801.66,3225.67,599.83,602.61,22.52,0000 0000 0000 0000 000000
2018-09-09 02:41:07,0.18,0.44,0.00,19.87,23.42,26.39,14.10,47.52,1017.11,2043.00,3102.36,2799.26,3222.75,600.30,602.99,22.57,0000 0000 0000 0000 000000
2018-09-09 02:46:09,0.01,0.44,0.00,19.88,23.42,26.37,14.10,47.58,1017.11,2042.99,3102.00,2798.94,3222.07,600.05,602.73,22.62,0000 0000 0000 0000 000000
2018-09-09 02:51:10,0.00,0.44,0.00,19.89,23.44,26.40,14.10,47.62,1017.11,2042.99,3101.98,2798.88,3222.00,600.09,602.70,22.67,0000 0000 0000 0000 000000
2018-09-09 02:56:12,-0.00,0.44,0.00,19.89,23.44,26.44,14.12,47.62,1017.11,2042.98,3101.99,2798.88,3222.00,599.76,602.46,22.72,0000 0000 0000 0000 000000
2018-09-09 03:01:13,0.01,0.44,0.00,19.90,23.45,26.40,14.08,47.63,1017.11,2042.98,3101.97,2798.75,3222.00,599.93,602.67,22.77,0000 0000 0000 0000 000000
2018-09-09 03:06:14,0.00,0.44,0.00,19.91,23.45,26.39,14.11,47.53,1017.11,2042.98,3101.95,2798.52,3221.99,600.17,602.77,22.82,0000 0000 0000 0000 000000
2018-09-09 03:11:15,-0.00,0.44,0.00,19.90,23.45,26.41,14.06,47.62,1017.11,2042.97,3101.92,2798.58,3221.99,599.69,602.32,22.87,0000 0000 0000 0000 000000
2018-09-09 03:16:16,0.00,0.44,0.00,19.91,23.45,26.44,14.05,47.56,1017.11,2042.97,3101.81,2798.55,3221.97,599.81,602.36,22.92,0000 0000 0000 0000 000000
2018-09-09 03:21:18,0.02,0.44,0.00,19.92,23.47,26.39,14.11,47.50,1017.10,2042.97,3101.32,2798.27,3221.87,600.12,602.76,22.97,0000 0000 0000 0000 000000
2018-09-09 03:26:19,0.01,0.44,0.00,19.93,23.47,26.44,14.11,47.52,1017.09,2042.95,3101.06,2798.09,3221.37,599.89,602.48,23.02,0000 0000 0000 0000 000000
2018-09-09 03:31:21,0.00,0.45,0.00,19.93,23.47,26.46,14.08,47.56,1017.09,2042.95,3101.00,2798.03,3221.07,599.85,602.38,23.07,0000 0000 0000 0000 000000
2018-09-09 03:36:22,0.00,0.45,0.00,19.94,23.47,26.44,14.13,47.58,1017.06,2042.96,3101.00,2798.02,3221.04,600.05,602.61,23.12,0000 0000 0000 0000 000000
2018-09-09 03:41:23,0.00,0.45,0.00,19.94,23.47,26.44,14.10,47.53,1017.04,2042.96,3100.99,2798.02,3221.02,599.85,602.38,23.17,0000 0000 0000 0000 000000
2018-09-09 03:46:24,-0.01,0.45,0.00,19.94,23.49,26.48,14.14,47.62,1017.00,2042.93,3100.99,2798.01,3221.00,600.04,602.50,23.22,0000 0000 0000 0000 000000
2018-09-09 03:51:25,-0.00,0.45,0.00,19.95,23.50,26.43,14.13,47.56,1016.90,2042.91,3100.99,2798.00,3220.99,599.99,602.33,23.27,0000 0000 0000 0000 000000
2018-09-09 03:56:27,0.00,0.45,0.00,19.96,23.50,26.45,14.08,47.45,1016.77,2042.89,3100.93,2798.00,3220.98,599.84,602.15,23.32,0000 0000 0000 0000 000000
2018-09-09 04:01:28,0.00,0.45,0.00,19.97,23.50,26.43,14.10,47.42,1016.69,2042.84,3100.51,2798.00,3220.97,600.04,602.28,23.37,0000 0000 0000 0000 000000
2018-09-09 04:06:29,0.01,0.45,0.00,19.99,23.51,26.46,14.09,47.47,1016.65,2042.95,3100.43,2798.00,3220.96,599.89,602.18,23.42,0000 0000 0000 0000 000000
2018-09-09 04:11:31,0.00,0.45,0.00,19.99,23.52,26.44,14.07,47.42,1016.63,2042.88,3100.14,2798.00,3220.80,599.95,602.13,23.47,0000 0000 0000 0000 000000
2018-09-09 04:16:32,0.01,0.45,0.00,19.98,23.52,26.44,14.19,47.46,1016.62,2042.92,3100.00,2797.98,3220.57,600.11,602.32,23.52,0000 0000 0000 0000 000000
2018-09-09 04:21:33,0.00,0.45,0.00,19.99,23.52,26.48,14.07,47.48,1016.63,2042.95,3100.00,2797.98,3220.37,599.96,601.99,23.57,0000 0000 0000 0000 000000
2018-09-09 04:26:34,-0.01,0.45,0.00,19.99,23.52,26.47,14.16,47.52,1016.62,2042.92,3100.01,2797.98,3220.24,599.96,602.10,23.62,0000 0000 0000 0000 000000
2018-09-09 04:31:36,-0.01,0.45,0.00,20.00,23.54,26.51,14.11,47.46,1016.62,2042.76,3100.00,2797.98,3220.06,600.02,602.13,23.67,0000 0000 0000 0000 000000
2018-09-09 04:36:37,-0.01,0.45,0.00,20.01,23.55,26.53,14.10,47.48,1016.62,2042.71,3100.00,2797.97,3220.02,600.00,602.10,23.72,0000 0000 0000 0000 000000
2018-09-09 04:41:38,0.00,0.45,0.00,20.02,23.55,26.50,14.05,47.43,1016.62,2042.62,3100.00,2797.96,3220.01,600.07,602.24,23.77,0000 0000 0000 0000 000000
2018-09-09 04:46:40,-0.03,0.45,0.00,20.02,23.55,26.54,14.12,47.56,1016.62,2042.40,3099.98,2797.91,3220.00,599.98,602.24,23.82,0000 0000 0000 0000 000000
2018-09-09 04:51:41,-0.01,0.44,0.00,20.02,23.55,26.54,14.13,47.47,1016.61,2042.18,3099.98,2797.73,3220.00,600.12,602.23,23.87,0000 0000 0000 0000 000000
2018-09-09 04:56:43,0.01,0.44,0.00,20.02,23.55,26.54,14.15,47.40,1016.61,2042.08,3099.77,2797.33,3219.99,600.15,602.26,23.92,0000 0000 0000 0000 000000
2018-09-09 05:01:44,0.01,0.45,0.00,20.04,23.57,26.53,14.07,47.48,1016.52,2042.08,3099.35,2797.09,3219.97,599.88,601.89,23.97,0000 0000 0000 0000 000000
2018-09-09 05:06:45,0.00,0.45,0.00,20.04,23.57,26.53,14.11,47.44,1016.40,2042.09,3099.27,2797.09,3219.95,599.79,601.74,24.02,0000 0000 0000 0000 000000
2018-09-09 05:11:47,0.01,0.45,0.00,20.04,23.57,26.53,14.06,47.48,1016.23,2042.12,3099.23,2797.09,3219.97,599.85,601.75,24.07,0000 0000 0000 0000 000000
2018-09-09 05:16:48,-0.01,0.45,0.00,20.04,23.57,26.53,14.12,47.48,1016.18,2042.07,3099.39,2797.08,3219.93,600.14,602.01,24.12,0000 0000 0000 0000 000000
2018-09-09 05:21:50,0.00,0.45,0.00,20.04,23.58,26.54,14.07,47.50,1016.15,2042.03,3099.17,2797.03,3219.71,600.20,601.96,24.17,0000 0000 0000 0000 000000
2018-09-09 05:26:51,0.01,0.45,0.00,20.05,23.59,26.55,14.10,47.50,1016.15,2042.02,3099.08,2797.03,3219.64,600.00,601.75,24.22,0000 0000 0000 0000 000000
2018-09-09 05:31:52,0.01,0.45,0.00,20.06,23.60,26.57,14.05,47.45,1016.13,2042.01,3099.02,2797.01,3219.24,599.90,601.60,24.27,0000 0000 0000 0000 000000
2018-09-09 05:36:53,0.00,0.45,0.00,20.07,23.60,26.56,14.11,47.45,1016.13,2042.04,3099.00,2797.00,3219.06,599.96,601.65,24.32,0000 0000 0000 0000 000000
2018-09-09 05:41:54,0.00,0.45,0.00,20.07,23.60,26.55,14.08,47.42,1016.13,2042.04,3099.00,2797.00,3219.03,599.79,601.52,24.37,0000 0000 0000 0000 000000
2018-09-09 05:46:56,0.00,0.45,0.00,20.07,23.60,26.56,14.01,47.50,1016.13,2042.01,3099.00,2797.01,3219.02,599.89,601.56,24.42,0000 0000 0000 0000 000000
2018-09-09 05:51:56,0.00,0.45,0.00,20.07,23.62,26.57,14.11,47.50,1016.10,2042.00,3099.00,2797.00,3219.01,600.25,602.01,24.47,0000 0000 0000 0000 000000
2018-09-09 05:56:57,0.00,0.45,0.00,20.07,23.62,26.59,13.98,47.50,1016.04,2042.00,3099.00,2797.00,3219.01,599.83,601.42,24.52,0000 0000 0000 0000 000000
2018-09-09 06:01:58,0.00,0.45,0.00,20.07,23.62,26.61,14.05,47.47,1015.88,2042.00,3099.00,2797.00,3219.00,599.76,601.42,24.57,0000 0000 0000 0000 000000
2018-09-09 06:07:00,0.00,0.45,0.00,20.07,23.62,26.63,14.02,47.52,1015.71,2042.00,3099.00,2797.00,3219.00,600.20,601.63,24.62,0000 0000 0000 0000 000000
2018-09-09 06:12:01,0.00,0.45,0.00,20.08,23.62,26.60,14.06,47.52,1015.65,2042.00,3098.98,2797.00,3219.00,600.01,601.41,24.67,0000 0000 0000 0000 000000
2018-09-09 06:17:02,0.00,0.45,0.00,20.09,23.64,26.62,14.02,47.47,1015.65,2042.00,3098.90,2796.99,3218.99,599.80,601.22,24.72,0000 0000 0000 0000 000000
2018-09-09 06:22:03,-0.00,0.45,0.00,20.09,23.64,26.64,14.12,47.47,1015.64,2041.99,3098.76,2796.98,3218.98,599.92,601.28,24.77,0000 0000 0000 0000 000000
2018-09-09 06:27:04,-0.00,0.45,0.00,20.09,23.65,26.65,14.11,47.57,1015.64,2041.99,3098.88,2796.99,3218.99,600.31,601.75,24.82,0000 0000 0000 0000 000000
2018-09-09 06:32:06,0.00,0.45,0.00,20.09,23.65,26.66,14.08,47.49,1015.64,2042.00,3098.71,2796.99,3218.97,600.10,601.44,24.88,0000 0000 0000 0000 000000
2018-09-09 06:37:07,0.00,0.45,0.00,20.11,23.65,26.63,14.08,47.51,1015.64,2042.00,3098.47,2796.98,3218.92,600.06,601.44,24.93,0000 0000 0000 0000 000000
2018-09-09 06:42:09,0.00,0.45,0.00,20.12,23.65,26.62,14.05,47.52,1015.63,2042.00,3098.10,2796.96,3218.80,600.02,601.30,24.98,0000 0000 0000 0000 000000
2018-09-09 06:47:10,0.00,0.45,0.00,20.11,23.65,26.62,14.10,47.52,1015.64,2042.00,3098.10,2796.97,3218.52,600.11,601.44,25.03,0000 0000 0000 0000 000000
2018-09-09 06:52:11,-0.01,0.45,0.00,20.11,23.67,26.66,14.08,47.58,1015.63,2042.00,3098.41,2796.99,3218.48,599.96,601.25,25.08,0000 0000 0000 0000 000000
2018-09-09 06:57:12,0.00,0.45,0.00,20.12,23.67,26.65,14.01,47.52,1015.62,2042.00,3098.16,2796.98,3218.38,599.72,601.09,25.13,0000 0000 0000 0000 000000
2018-09-09 07:02:13,0.00,0.45,0.00,20.12,23.67,26.66,14.11,47.55,1015.57,2041.99,3098.02,2796.97,3218.12,599.87,601.21,25.18,0000 0000 0000 0000 000000
2018-09-09 07:07:15,0.00,0.45,0.00,20.12,23.67,26.65,14.06,47.46,1015.51,2041.99,3098.00,2796.80,3218.03,600.05,601.29,25.23,0000 0000 0000 0000 000000
2018-09-09 07:12:16,0.01,0.45,0.00,20.12,23.67,26.72,14.08,47.50,1015.35,2041.98,3098.00,2796.47,3218.00,600.02,601.22,25.28,0000 0000 0000 0000 000000
2018-09-09 07:17:17,-0.00,0.45,0.00,20.13,23.67,26.69,14.07,47.54,1015.25,2041.97,3097.98,2796.21,3218.00,599.75,600.72,25.33,0000 0000 0000 0000 000000
2018-09-09 07:22:19,0.01,0.45,0.00,20.13,23.68,26.66,14.03,47.44,1015.17,2041.97,3097.96,2796.19,3217.99,599.95,600.94,25.38,0000 0000 0000 0000 000000
2018-09-09 07:27:20,0.00,0.45,0.00,20.14,23.69,26.65,14.02,47.48,1015.16,2041.98,3097.97,2796.16,3217.99,599.88,600.75,25.43,0000 0000 0000 0000 000000
2018-09-09 07:32:22,0.00,0.45,0.00,20.13,23.70,26.68,14.15,47.48,1015.15,2041.98,3097.89,2796.04,3217.98,600.19,601.06,25.48,0000 0000 0000 0000 000000
2018-09-09 07:37:23,0.00,0.45,0.00,20.13,23.70,26.69,14.12,47.47,1015.15,2041.98,3097.74,2796.05,3217.97,599.99,600.96,25.53,0000 0000 0000 0000 000000
2018-09-09 07:42:24,0.01,0.45,0.00,20.14,23.70,26.69,14.04,47.49,1015.15,2041.96,3097.21,2796.02,3217.86,599.92,600.90,25.58,0000 0000 0000 0000 000000
2018-09-09 07:47:26,0.00,0.45,0.00,20.14,23.70,26.66,14.04,47.42,1015.15,2041.99,3097.05,2796.01,3217.86,599.86,600.73,25.63,0000 0000 0000 0000 000000
2018-09-09 07:52:27,-0.00,0.45,0.00,20.14,23.70,26.71,14.06,47.44,1015.15,2041.98,3097.18,2796.05,3217.84,600.18,601.01,25.68,0000 0000 0000 0000 000000
2018-09-09 07:57:28,0.00,0.45,0.00,20.14,23.70,26.67,14.06,47.48,1015.15,2041.98,3097.06,2796.02,3217.68,599.94,600.93,25.73,0000 0000 0000 0000 000000
2018-09-09 08:02:30,0.01,0.45,0.00,20.14,23.70,26.72,14.05,47.42,1015.15,2041.98,3097.01,2796.00,3217.20,600.05,600.97,25.78,0000 0000 0000 0000 000000
2018-09-09 08:07:31,-0.00,0.45,0.00,20.14,23.71,26.71,14.07,47.48,1015.15,2041.96,3097.01,2796.01,3217.08,600.19,601.12,25.83,0000 0000 0000 0000 000000
2018-09-09 08:12:32,0.00,0.45,0.00,20.14,23.72,26.69,14.11,47.49,1015.15,2041.96,3097.04,2796.02,3217.09,599.90,600.84,25.88,0000 0000 0000 0000 000000
2018-09-09 08:17:33,-0.00,0.45,0.00,20.14,23.72,26.77,14.03,47.50,1015.15,2041.95,3097.05,2796.02,3217.06,599.89,600.82,25.93,0000 0000 0000 0000 000000
2018-09-09 08:22:34,0.00,0.45,0.00,20.14,23.72,26.75,14.07,47.53,1015.15,2041.95,3097.03,2796.03,3217.05,599.76,600.80,25.98,0000 0000 0000 0000 000000
2018-09-09 08:27:35,0.02,0.45,0.00,20.15,23.72,26.75,14.15,47.45,1015.15,2041.95,3096.52,2795.99,3216.98,600.08,601.01,26.03,0000 0000 0000 0000 000000
2018-09-09 08:32:36,0.00,0.45,0.00,20.15,23.72,26.72,14.07,47.41,1015.13,2041.95,3096.01,2795.95,3216.93,600.16,601.12,26.08,0000 0000 0000 0000 000000
2018-09-09 08:37:38,0.01,0.45,0.00,20.14,23.72,26.77,14.07,47.47,1015.08,2041.89,3096.00,2795.84,3216.49,599.83,600.77,26.13,0000 0000 0000 0000 000000
2018-09-09 08:42:39,-0.01,0.45,0.00,20.15,23.72,26.77,13.98,47.41,1015.11,2041.69,3096.00,2795.65,3216.16,599.73,600.59,26.18,0000 0000 0000 0000 000000
2018-09-09 08:47:40,-0.01,0.45,0.00,20.14,23.72,26.74,14.07,47.43,1015.15,2041.61,3096.00,2795.68,3216.13,600.14,601.10,26.23,0000 0000 0000 0000 000000
2018-09-09 08:52:42,0.01,0.45,0.00,20.14,23.72,26.74,14.09,47.37,1015.14,2041.61,3096.00,2795.71,3216.12,600.18,601.19,26.28,0000 0000 0000 0000 000000
2018-09-09 08:57:43,0.01,0.45,0.00,20.14,23.72,26.78,13.98,47.29,1015.14,2041.75,3096.00,2795.68,3216.11,599.87,600.70,26.33,0000 0000 0000 0000 000000
2018-09-09 09:02:44,-0.03,0.45,0.00,20.14,23.73,26.74,14.09,47.36,1015.13,2041.50,3095.99,2795.70,3216.08,600.23,601.14,26.38,0000 0000 0000 0000 000000
2018-09-09 09:07:46,0.00,0.45,0.00,20.14,23.73,26.74,14.06,47.45,1015.09,2041.42,3095.99,2795.63,3216.04,600.21,601.12,26.43,0000 0000 0000 0000 000000
2018-09-09 09:12:47,0.02,0.45,0.00,20.14,23.73,26.75,14.11,47.41,1015.02,2041.67,3095.99,2795.84,3216.04,600.34,601.24,26.48,0000 0000 0000 0000 000000
2018-09-09 09:17:48,0.00,0.45,0.00,20.14,23.74,26.71,14.11,47.55,1014.90,2041.72,3095.99,2795.80,3216.07,600.21,600.88,26.53,0000 0000 0000 0000 000000
2018-09-09 09:22:50,-0.01,0.45,0.00,20.14,23.74,26.74,14.08,47.42,1014.86,2041.60,3095.98,2795.65,3216.03,599.79,600.59,26.58,0000 0000 0000 0000 000000
2018-09-09 09:27:51,0.01,0.45,0.00,20.14,23.74,26.74,14.02,47.45,1014.79,2041.56,3095.99,2795.72,3216.03,599.99,600.83,26.63,0000 0000 0000 0000 000000
2018-09-09 09:32:53,-0.02,0.45,0.00,20.15,23.74,26.76,14.02,47.42,1014.69,2041.51,3095.98,2795.60,3216.02,599.96,600.67,26.68,0000 0000 0000 0000 000000
2018-09-09 09:37:54,0.02,0.45,0.00,20.14,23.74,26.75,14.10,47.47,1014.68,2041.60,3095.98,2795.71,3216.02,600.09,600.77,26.73,0000 0000 0000 0000 000000
2018-09-09 09:42:55,-0.01,0.45,0.00,20.14,23.74,26.77,13.97,47.46,1014.67,2041.46,3095.97,2795.52,3216.01,599.78,600.45,26.78,0000 0000 0000 0000 000000
2018-09-09 09:47:56,0.00,0.45,0.00,20.13,23.74,26.75,13.96,47.56,1014.66,2041.56,3095.98,2795.78,3216.03,599.88,600.50,26.83,0000 0000 0000 0000 000000
2018-09-09 09:52:58,0.01,0.45,0.00,20.12,23.74,26.81,14.08,47.50,1014.66,2041.51,3095.98,2795.76,3216.03,600.18,600.92,26.88,0000 0000 0000 0000 000000
2018-09-09 09:57:59,0.00,0.45,0.00,20.14,23.74,26.78,14.04,47.54,1014.66,2041.57,3095.95,2795.52,3216.01,599.98,600.64,26.93,0000 0000 0000 0000 000000
2018-09-09 10:03:00,0.01,0.45,0.00,20.13,23.74,26.77,14.07,47.53,1014.66,2041.60,3095.95,2795.63,3216.00,600.04,600.77,26.98,0000 0000 0000 0000 000000
2018-09-09 10:08:01,-0.02,0.45,0.00,20.13,23.74,26.77,14.04,47.52,1014.66,2041.46,3095.95,2795.61,3216.00,599.87,600.66,27.03,0000 0000 0000 0000 000000
2018-09-09 10:13:02,-0.02,0.45,0.00,20.13,23.74,26.77,14.08,47.48,1014.66,2041.29,3095.95,2795.61,3216.00,600.09,600.75,27.08,0000 0000 0000 0000 000000
2018-09-09 10:18:04,-0.00,0.45,0.00,20.12,23.74,26.77,14.10,47.48,1014.66,2041.21,3095.97,2795.82,3216.00,599.99,600.78,27.13,0000 0000 0000 0000 000000
2018-09-09 10:23:05,0.01,0.45,0.00,20.12,23.73,26.77,14.06,47.50,1014.65,2041.28,3095.90,2795.62,3215.99,599.98,600.69,27.18,0000 0000 0000 0000 000000
2018-09-09 10:28:06,0.11,0.45,0.00,20.12,23.73,26.79,14.04,47.49,1014.59,2041.30,3093.46,2794.33,3215.02,599.89,600.42,27.23,0000 0000 0000 0000 000000
2018-09-09 10:33:08,0.00,0.46,0.00,20.12,23.73,26.77,14.03,47.47,1014.35,2041.22,3092.92,2794.03,3214.78,600.18,600.77,27.28,0000 0000 0000 0000 000000
2018-09-09 10:38:09,0.01,0.46,0.00,20.11,23.72,26.76,14.06,47.51,1014.32,2041.26,3092.88,2794.00,3214.76,600.07,600.55,27.33,0000 0000 0000 0000 000000
2018-09-09 10:43:10,-0.00,0.46,0.00,20.09,23.72,26.77,14.09,47.52,1014.21,2041.11,3092.81,2794.01,3214.48,599.89,600.43,27.38,0000 0000 0000 0000 000000
2018-09-09 10:48:11,0.00,0.46,0.00,20.11,23.72,26.77,14.08,47.55,1014.18,2041.19,3092.93,2794.02,3214.74,600.09,600.50,27.43,0000 0000 0000 0000 000000
2018-09-09 10:53:12,0.01,0.46,0.00,20.11,23.72,26.78,14.04,47.49,1014.18,2041.32,3092.92,2794.03,3214.85,599.97,600.44,27.48,0000 0000 0000 0000 000000
2018-09-09 10:58:13,0.02,0.46,0.00,20.11,23.72,26.76,14.05,47.55,1014.18,2041.49,3092.93,2794.04,3214.92,599.85,600.34,27.53,0000 0000 0000 0000 000000
2018-09-09 11:03:14,-0.01,0.46,0.00,20.10,23.72,26.79,14.09,47.55,1014.18,2041.61,3092.92,2794.02,3214.93,600.19,600.66,27.58,0000 0000 0000 0000 000000
2018-09-09 11:08:16,0.03,0.46,0.00,20.09,23.72,26.76,14.01,47.46,1014.18,2041.71,3092.89,2794.02,3214.94,600.02,600.47,27.63,0000 0000 0000 0000 000000
2018-09-09 11:13:17,-0.01,0.46,0.00,20.09,23.72,26.76,14.06,47.51,1014.17,2041.68,3092.89,2794.02,3214.88,599.87,600.38,27.68,0000 0000 0000 0000 000000
2018-09-09 11:18:18,0.02,0.46,0.00,20.08,23.72,26.76,14.03,47.41,1014.17,2041.68,3092.67,2794.02,3214.83,599.81,600.46,27.73,0000 0000 0000 0000 000000
2018-09-09 11:23:20,0.00,0.46,0.00,20.08,23.72,26.77,14.05,47.40,1014.15,2041.75,3092.70,2794.03,3214.87,599.91,600.41,27.78,0000 0000 0000 0000 000000
2018-09-09 11:28:21,0.00,0.46,0.00,20.09,23.72,26.77,14.09,47.42,1014.10,2041.88,3092.89,2794.05,3214.89,600.03,600.34,27.83,0000 0000 0000 0000 000000
2018-09-09 11:33:22,-0.01,0.46,0.00,20.09,23.72,26.74,14.13,47.48,1014.05,2041.81,3092.89,2794.06,3214.89,600.04,600.49,27.88,0000 0000 0000 0000 000000
2018-09-09 11:38:24,0.01,0.46,0.00,20.07,23.72,26.76,14.07,47.43,1014.04,2041.83,3092.82,2794.08,3214.87,599.90,600.26,27.93,0000 0000 0000 0000 000000
2018-09-09 11:43:25,0.00,0.46,0.00,20.07,23.72,26.73,14.06,47.45,1014.04,2041.92,3092.87,2794.09,3214.92,599.94,600.40,27.98,0000 0000 0000 0000 000000
2018-09-09 11:48:26,0.00,0.46,0.00,20.07,23.71,26.74,14.05,47.38,1013.97,2041.90,3092.77,2794.04,3214.86,600.08,600.51,28.03,0000 0000 0000 0000 000000
2018-09-09 11:53:27,-0.00,0.46,0.00,20.07,23.70,26.77,14.06,47.35,1013.81,2041.89,3092.72,2794.06,3214.84,600.02,600.35,28.08,0000 0000 0000 0000 000000
2018-09-09 11:58:29,0.00,0.46,0.00,20.06,23.70,26.75,14.06,47.34,1013.77,2041.93,3092.77,2794.10,3214.91,600.34,600.69,28.13,0000 0000 0000 0000 000000
2018-09-09 12:03:30,-0.00,0.46,0.00,20.04,23.70,26.77,14.01,47.34,1013.72,2041.94,3092.91,2794.21,3214.94,599.84,600.19,28.18,0000 0000 0000 0000 000000
2018-09-09 12:08:31,0.00,0.46,0.00,20.04,23.70,26.76,14.06,47.26,1013.72,2041.93,3092.86,2794.16,3214.93,599.96,600.19,28.23,0000 0000 0000 0000 000000
2018-09-09 12:13:33,-0.00,0.46,0.00,20.05,23.70,26.74,14.07,47.30,1013.70,2041.93,3092.92,2794.24,3214.93,600.25,600.52,28.28,0000 0000 0000 0000 000000
2018-09-09 12:18:34,-0.00,0.46,0.00,20.04,23.70,26.74,14.06,47.40,1013.69,2041.90,3092.79,2794.17,3214.93,599.94,600.34,28.33,0000 0000 0000 0000 000000
2018-09-09 12:23:35,-0.00,0.46,0.00,20.04,23.70,26.76,14.08,47.38,1013.69,2041.96,3092.90,2794.34,3214.95,600.15,600.43,28.38,0000 0000 0000 0000 000000
2018-09-09 12:28:36,-0.00,0.46,0.00,20.04,23.69,26.75,14.07,47.30,1013.69,2041.98,3092.95,2794.43,3214.97,599.87,600.14,28.43,0000 0000 0000 0000 000000
2018-09-09 12:33:37,0.00,0.46,0.00,20.03,23.69,26.76,13.92,47.35,1013.69,2041.97,3092.92,2794.41,3214.96,599.45,599.76,28.48,0000 0000 0000 0000 000000
2018-09-09 12:38:39,-0.00,0.46,0.00,20.02,23.68,26.74,14.08,47.48,1013.69,2041.98,3092.95,2794.50,3214.98,599.98,600.40,28.53,0000 0000 0000 0000 000000
2018-09-09 12:43:40,0.01,0.46,0.00,20.02,23.67,26.75,14.02,47.38,1013.68,2041.98,3092.92,2794.45,3214.96,599.95,600.30,28.58,0000 0000 0000 0000 000000
2018-09-09 12:48:41,-0.01,0.46,0.00,20.02,23.67,26.76,14.06,47.34,1013.55,2041.96,3092.95,2794.63,3214.98,599.93,600.14,28.63,0000 0000 0000 0000 000000
2018-09-09 12:53:43,0.00,0.46,0.00,20.02,23.67,26.72,14.06,47.38,1013.35,2041.97,3092.88,2794.52,3214.96,599.73,599.87,28.68,0000 0000 0000 0000 000000